www.pogodaiklimat.ru

Погода и климат >> Архив погоды >> Россия >> Липецкая область >> Липецк


АРХИВ ПОГОДЫ в Липецке

Время (UTC), дата Ветер
(напр.,м/с)
 
Видим.   Явления Облачность Т
(С)
Тd
(С)
f
(%)
Тe
(С)
Тes
(С)
Комфортность P
(гПа)
Po
(гПа)
Тmin
(С)
Tmax
(С)
R
(мм)
R24
(мм)
S
(см)
06 17.08 СВ 2 10 км в посл. час ливневой дождь 10/5 1000 м
[Cb calv Ac As]
+19.2 +17.7 91 +22 +23 комфорт 1008.1 987.5
09 17.08 Ю 3 10 км слаб. ливневой дождь 10/5 1000 м
[Cb calv Ac As]
+20.1 +17.7 86 +23 +25 комфорт 1008.6 988.1
12 17.08 ЮВ 2 8000 м слаб. ливневой дождь 10/6 1000 м
[Cb calv Ac As]
+19.9 +18.3 90 +23 +25 комфорт 1008.6 988.1
15 17.08 В 6 8000 м слаб. ливневой дождь 10/6 600 м
[Cb calv Ac As]
+19.1 +18.3 95 +20 +21 по сезону 1008.3 987.7 +20.5 10
18 17.08 Ю 5 10 км слаб. ливневой дождь 10/6 1000 м
[Cb calv Ac As]
+18.4 +16.9 91 +19 +19 по сезону 1008.3 987.7
21 17.08 Ю 2 10 км {ливн. осадки} 9/4 600 м
[Sc Ci fib]
+17.0 +15.8 93 +17 +17 по сезону 1007.7 987.1
00 18.08 ЮЗ 2 2000 м дымка {ливн. осадки} 3/0
[Ci fib]
+17.5 +17.3 99 +18 +18 тепло 1008.3 987.6
03 18.08 Ю 2 400 м туман ?/? +17.8 +17.8 100 +18 +18 тепло 1008.9 988.2 +15.8 3
06 18.08 З 3 8000 м дымка {туман} 9/9 480 м
[Sc]
+18.9 +17.6 92 +21 +21 комфорт 1009.5 988.9
09 18.08 ЮЗ 4 10 км 9/9 900 м
[Sc]
+20.6 +15.9 74 +24 +25 комфорт 1010.6 990.2
12 18.08 ЮЗ 5 10 км 8/8 1170 м
[Cu med, cong]
+24.1 +15.1 57 +27 +28 жарко 1011.1 990.9
15 18.08 З 3 10 км 8/1 1000 м
[Cu med, cong Ci fib]
+23.2 +14.0 56 +27 +27 душно 1011.8 991.5 +24.4
18 18.08 СЗ 3 10 км 8/0
[Ac trans Ci fib]
+17.9 +14.8 82 +18 +18 по сезону 1013.9 993.1
21 18.08 З 2 10 км 4/0
[Ci fib]
+15.6 +14.2 91 +15 +15 по сезону 1014.6 993.6
00 19.08 З 3 8000 м дымка 6/0
[Ci fib]
+14.2 +13.5 96 +13 +13 по сезону 1015.9 994.8
03 19.08 З 2 8000 м дымка 9/6 930 м
[Sc Ci fib]
+13.6 +12.9 96 +13 +13 прохладно 1017.2 996.1 +12.7
06 19.08 З 3 10 км 4/3 300 м
[St Ac trans]
+18.0 +14.4 79 +18 +22 по сезону 1017.4 996.6
09 19.08 СЗ 4 10 км 5/3 600 м
[Cu hum Ac trans Ci fib]
+22.6 +15.3 63 +26 +32 жарко 1017.8 997.4
12 19.08 СЗ 3 10 км 4/3 1000 м
[Cu hum Ci fib]
+25.0 +14.2 51 +27 +32 жарко 1018.1 997.7
15 19.08 СЗ 3 10 км 3/3 1500 м
[Cu hum Ac trans]
+24.8 +13.6 50 +27 +28 жарко 1018.5 998.1 +25.7
18 19.08 СЗ 2 10 км 3/0
[Ci fib]
+21.0 +14.5 66 +25 +25 комфорт 1020.0 999.4
21 19.08 С 2 10 км 3/0
[Ci fib]
+16.8 +14.2 85 +17 +17 по сезону 1021.0 1000.1
00 20.08 СВ 1 10 км 3/0
[Ci fib]
+15.0 +13.8 93 +15 +15 по сезону 1021.5 1000.4
03 20.08 С 1 900 м туман ясно +14.0 +13.3 96 +14 +15 по сезону 1022.8 1001.6 +13.5
06 20.08 СВ 2 10 км {туман} ясно +20.4 +15.5 73 +24 +30 комфорт 1023.1 1002.4
09 20.08 С 4 10 км 5/5 1260 м
[Cu hum]
+24.7 +15.1 55 +28 +32 душно 1022.4 1002.0
12 20.08 С 4 10 км 1/1 1500 м
[Cu hum]
+26.6 +12.1 41 +28 +33 жарко 1021.9 1001.6
15 20.08 С 3 10 км ясно +26.6 +12.1 41 +28 +29 жарко 1021.5 1001.2 +26.7
18 20.08 СЗ 2 10 км 1/0
[Ci fib]
+20.4 +14.0 67 +23 +23 комфорт 1023.0 1002.3
21 20.08 С 1 10 км ясно +16.9 +13.7 81 +18 +18 тепло 1023.6 1002.7
00 21.08 З 1 10 км ясно +14.2 +12.9 92 +14 +14 по сезону 1024.5 1003.2
03 21.08 СЗ 2 10 км ясно +14.2 +12.7 91 +14 +14 по сезону 1024.8 1003.5 +13.1
06 21.08 СВ 3 10 км 1/0
[Ci fib]
+23.0 +14.6 59 +27 +32 душно 1024.5 1003.9
09 21.08 СВ 4 10 км 1/1
[Cu hum]
+26.7 +15.4 50 +30 +37 душно 1023.6 1003.3
12 21.08 СВ 3 10 км 1/1 1500 м
[Cu hum]
+28.9 +14.8 42 +31 +37 жарко 1022.2 1002.1
15 21.08 СВ 2 10 км 3/0
[Ac trans Ci fib]
+28.3 +14.8 44 +31 +32 душно 1021.5 1001.4 +28.9
18 21.08 СВ 3 10 км 1/0
[Ci fib]
+22.8 +15.9 65 +27 +27 душно 1021.9 1001.4
21 21.08 С 1 10 км 1/0
[Ci fib]
+18.6 +15.6 83 +21 +21 комфорт 1022.0 1001.2
00 22.08 СВ 1 10 км ясно +17.4 +15.2 87 +18 +18 тепло 1022.1 1001.2
03 22.08 СВ 2 10 км ясно +16.2 +14.6 90 +16 +16 по сезону 1022.0 1001.0 +15.8
06 22.08 ЮВ 1 10 км ясно +23.6 +15.5 60 +27 +34 жарко 1021.7 1001.2
09 22.08 С 1 10 км 4/4 1500 м
[Cu hum]
+28.2 +14.1 42 +30 +39 жарко 1020.6 1000.4
12 22.08 В 2 10 км 4/3 1500 м
[Cu hum Ac trans Ci fib]
+30.0 +14.2 38 +32 +37 жарко 1019.7 999.7
15 22.08 СВ 1 10 км 8/3 1500 м
[Cu hum Ac trans Ci fib]
+28.7 +14.5 42 +31 +31 жарко 1019.4 999.3 +30.0
18 22.08 ЮЗ 3 10 км 8/0
[Ac trans Ci fib]
+23.7 +15.0 58 +27 +27 жарко 1020.4 999.9
21 22.08 С 7
{12}
10 км 8/0
[Ac trans Ci fib]
+19.6 +15.2 76 +21 +21 комфорт 1022.2 1001.5
00 23.08 С 6 10 км 4/0
[Ac trans Ci fib]
+17.5 +14.0 80 +17 +17 тепло 1023.4 1002.5
03 23.08 С 6 10 км 8/3 600 м
[Cu hum Ac trans Ci fib]
+16.4 +12.6 78 +15 +15 по сезону 1024.4 1003.3 +16.4
06 23.08 СВ 6-10
{13}
10 км слаб. ливневой дождь 9/4 600 м
[Cb calv Ac trans Ci fib]
+16.1 +14.4 90 +15 +16 по сезону 1025.4 1004.3 +16.1
09 23.08 СВ 7
{10}
10 км {ливн. осадки} 9/0
[Ac trans Ci fib]
+20.6 +13.9 65 +23 +25 комфорт 1025.7 1004.9
12 23.08 СВ 7-10
{10}
10 км {ливн. осадки} 10/0
[Ac trans Ci fib]
+24.6 +10.7 42 +26 +27 жарко 1024.7 1004.2
15 23.08 СВ 5
{10}
10 км 10/0
[Ac trans Ci fib]
+23.8 +8.2 37 +24 +25 комфорт 1024.4 1003.8 +24.7 0.1
18 23.08 СВ 3 10 км 5/0
[Ci fib]
+17.5 +10.4 63 +18 +18 по сезону 1025.4 1004.4
21 23.08 СВ 3 10 км 8/0
[Ci fib]
+15.6 +9.4 67 +15 +15 по сезону 1025.8 1004.6
00 24.08 СВ 3 10 км 6/0
[Ci fib]
+12.9 +9.2 78 +12 +12 по сезону 1026.2 1004.8

 

Местоположение метеостанции Липецк (Липецкая область, Россия): широта 52.70 долгота 39.52 высота над уровнем моря 177 м.

В архиве по умолчанию представлена погода в Липецке за последнюю неделю. Архивные данные за месяц целиком и за предыдущие месяцы, начиная с января 2011 года, Вы можете получить, выбрав интересующий диапазон дат из раскрывающегося списка и нажав кнопку "Ввод!".


*Определитесь, кто Вы:
робот инопланетянин человек

Внимание! Время в таблицах - всемирное. Для получения местного времени необходимо прибавить поправку, которая равна 3 ч.

Смотрите также архив погоды в соседних городах и на ближайших метеорологических станциях:

Погода в Льве Толстом (Липецкая область, Россия) (58 км)
Погода в Конь-Колодезе (Липецкая область, Россия) (66 км)
Погода в Мичуринске (Тамбовская область, Россия) (68 км)
Погода в Ельце (Липецкая область, Россия) (68 км)
Погода в Александро-Невском (Рязанская область, Россия) (97 км)
Погода в Ефремове (Тульская область, Россия) (106 км)
Погода в Совхозе им. Ленина (Тамбовская область, Россия) (107 км)
Погода в Воронеже (Воронежская область, Россия) (113 км)
Погода в Ряжске (Рязанская область, Россия) (120 км)
Погода в Павельце (Рязанская область, Россия) (121 км)

Пояснения к столбцам:

Ветер - указаны скорость ветра в м/с - средняя за 10 мин, порывы в срок и между сроками (в фигурных скобках) и направление, откуда дует ветер: С - северный, СВ - северо-восточный, В - восточный, ЮВ - юго-восточный, Ю - южный, ЮЗ - юго-западный, З - западный, СЗ - северо-западный.
Видимость - горизонтальная дальность видимости в метрах или километрах. При видимости от 1 до 10 км при отсутствии осадков обычно наблюдается дымка, при ухудшении видимости до 1 км и менее - туман. В сухую погоду видимость может ухудшаться дымом, пылью или мглою.
Явления - указаны атмосферные явления, наблюдавшиеся в срок или в последний час перед сроком; фигурными скобками обозначены явления, наблюдавшиеся между сроками (за 1-3 часа до срока); квадратными скобками обозначены град или гололедные отложения с указанием их диаметра в мм.
Облачность - указаны через наклонную черту общая и нижняя облачность в баллах и высота нижней границы облаков в метрах; квадратными скобками обозначены формы облаков: Ci - перистые, Cs - перисто-слоистые, Cc - перисто-кучевые, Ac - высококучевые, As - высокослоистые, Sc - слоисто-кучевые, Ns - слоисто-дождевые, Cu - кучевые, Cb - кучево-дождевые. Подробнее классификацию облаков см. в Атласе облаков (PDF).
T - Температура воздуха - температура, измеренная на высоте 2 м над землей.
Td - Температура точки росы - температура, при понижении до которой содержащийся в воздухе водяной пар достигнет насыщения.
f - Относительная влажность воздуха - влажноcть воздуха, измеренная на высоте 2 м над землей.
Te - Эффективная температура - температура, которую ощущает одетый по сезону человек в тени. Характеристика душности погоды. При расчете учитывается влияние влажности воздуха и скорости ветра на теплоощущения человека.
Tes - Эффективная температура на солнце - температура, которую ощущает человек, с поправкой на солнечный нагрев. Характеристика знойности погоды. Зависит от высоты солнца над горизонтом, облачности и скорости ветра. Ночью, в пасмурную погоду, а также при ветре 12 м/с и более поправка равна нулю.
P - Атмосферное давление - приведенное к уровню моря атмосферное давление.
Po - Атмосферное давление - измеренное на уровне метеостанции атмосферное давление.
Tmin - Минимальная температура - минимум температуры воздуха на высоте 2 м над землей.
Tmax - Максимальная температура - максимум температуры воздуха на высоте 2 м над землей.
R - Количество осадков - Количество выпавших осадков за период времени, мм. При наведении курсора мыши на число - период времени, за который выпало указанное количество осадков.
R24 - Количество осадков - Количество выпавших осадков за 24 часа, мм.
S - Снежный покров - Высота снежного покрова, см. При наведении курсора мыши на число - состояние снежного покрова и степень покрытия местности в баллах.